SCP
0 0 0 0 0 0 0 0 0 0 0 0 0 0 0 0 0 0 0 -0 -0 -0 -0 0 0 0 0 0 0 0 0 0 0 -0 0 0 0 0 0 0 0 0 0 0
0 0 0 0 0 0 0 0 0 0 0 0 0 0 0 0 0 0 0 0 0 0 0 -0 -0 -0 0 0 -0 -0 -0 -0 -0 -0 0 0 0 0 -0 0 0 0 0 0
0 0 0 0 0 0 0 0 0 0 0 0 0 0 0 0 0 0 0 0 0 -0 -0 -0 -0 -0 -0 -0 -0 0 -0 -0 0 -0 -0 0 0 0 -0 0 0 0 0 0
0 0 0 0 0 0 0 0 0 0 0 0 0 0 0 0 0 0 0 0 -0 -0 -0 -0 -0 -0 -0 -0 -0 -0 -0 -0 -0 -0 0 0 0 0 0 0 0 0 0 0
0 0 0 0 0 0 0 0 0 0 0 0 0 0 0 -0 -0 0 -0 0 -0 -0 -0 -0 -0 -0 -0 -0 -0 -0 -0 -0 0 0 0 -0 0 0 0 0 0 0 0 0
0 0 0 0 0 0 0 0 0 0 0 0 0 0 0 0 0 -0 0 0 0 0 0 0 0 -0 -0 -0 -0 -0 -0 -0 -0 -0 0 0 0 0 0 0 0 0 0 0
0 0 0 0 0 0 0 0 0 0 0 0 0 0 0 0 0 0 0 0 0 0 0 0 0 0 0 0 -0 -0 -0 -0 -0 -0 -0 -0 -0 0 0 0 0 0 0 0
0 0 0 0 0 0 0 0 0 0 0 0 0 0 0 0 0 0 0 0 0 0 0 0 0 0 0 0 0 0 0 -0 -0 -0 -0 -0 -0 0 0 0 0 0 0 0
0 0 0 0 0 0 0 0 0 0 0 0 0 0 0 0 0 0 0 0 0 0 0 0 0 0 0 0 0 0 0 -0 -0 -0 -0 -0 -0 -0 0 0 0 0 0 0
0 0 0 0 0 0 0 0 0 0 0 0 0 0 0 0 0 0 0 0 0 0 0 0 0 0 0 0 0 0 0 -0 -0 -0 -0 -0 0 0 0 0 0 0 0 0
0 0 0 0 0 0 0 0 0 0 0 0 0 0 0 0 0 0 0 0 0 0 0 0 0 0 0 0 0 0 0 0 0 -0 -0 -0 -0 0 0 0 0 0 0 0
0 0 0 0 0 0 0 0 0 0 0 0 0 0 0 0 0 0 0 0 0 0 0 0 0 0 0 0 0 0 0 0 0 0 0 0 -0 -0 0 0 0 0 0 0
0 0 0 0 0 0 0 0 0 0 0 0 0 0 0 0 0 0 0 0 0 0 0 0 0 0 0 0 0 0 0 0 0 0 0 0 0 0 0 0 0 0 0 0
0 0 0 0 0 0 0 0 0 0 0 0 0 0 0 0 0 0 0 0 0 0 0 -0 -0 0 0 0 0 0 0 0 0 0 0 0 0 0 0 0 0 0 0 0
0 0 0 0 0 0 0 0 0 0 0 0 0 0 0 0 0 0 0 0 0 0 0 -0 0 0 0 0 0 0 0 0 0 0 0 0 0 0 0 0 0 0 0 0
0 0 0 0 0 0 0 0 0 0 0 0 0 0 0 0 0 0 0 0 0 0 0 0 0 0 0 0 0 0 0 0 0 0 0 0 0 0 0 0 0 0 0 0
0 0 0 0 0 0 0 0 0 0 0 0 0 0 0 0 0 0 0 0 0 0 0 0 0 0 0 0 0 0 0 0 0 0 0 0 0 0 0 0 0 0 0 0
0 0 0 0 0 0 0 0 0 0 0 0 0 0 0 0 -0 -0 -0 0 0 0 0 0 0 0 0 0 0 0 0 0 0 0 0 0 0 0 0 0 0 0 0 0
0 0 0 0 0 0 0 0 0 0 0 0 0 0 0 -0 -0 -0 -0 -0 -0 -0 0 0 0 0 0 0 0 0 0 0 0 0 0 0 0 -0 0 0 0 0 0 0
0 0 0 0 0 0 0 0 0 0 0 0 0 0 -0 -0 -0 -0 -0 -0 -0 0 0 0 0 0 0 0 0 0 0 0 0 0 0 0 0 0 0 -0 -0 0 0 0
0 0 0 0 0 0 0 0 0 0 0 0 0 -0 -0 -0 0 0 -0 -0 0 0 0 0 0 0 0 0 0 0 0 0 0 0 0 0 0 0 0 0 0 -0 -0 0
0 0 0 0 0 0 0 0 0 0 0 0 -0 -0 -0 0 -0 0 0 -0 0 0 0 0 0 0 0 0 0 0 0 0 0 0 0 0 0 0 -0 -0 -0 -0 0 0
0 0 0 0 0 0 0 0 0 0 0 -0 -0 -0 0 0 0 -0 -0 0 -0 0 0 0 0 0 0 0 0 0 0 0 0 0 -0 -0 -0 0 -0 -0 -0 -0 -0 0
0 0 0 0 0 0 0 0 0 0 -0 -0 0 0 0 0 0 -0 -0 -0 0 0 0 0 -0 -0 0 0 0 0 0 0 0 0 0 0 -0 -0 -0 -0 0 0 0 0
0 0 0 0 0 0 0 0 -0 -0 0 0 0 0 0 0 0 0 0 0 0 0 0 0 0 0 0 0 0 0 0 0 0 0 -0 -0 -0 -0 -0 -0 -0 -0 -0 0
0 0 0 0 0 0 -0 -0 0 0 0 0 0 0 0 0 0 0 0 0 0 0 0 0 0 0 0 0 0 0 0 0 0 0 0 0 0 0 0 0 0 0 0 0
0 0 0 0 -0 -0 0 0 0 0 0 0 0 0 0 0 0 0 0 0 0 0 0 0 0 0 0 0 0 0 0 0 0 0 0 0 0 0 0 -0 -0 -0 -0 -0
Wind_Speed_500mb
26 32 13 5 16 25 26 31 21 34 34 40 4 7 13 27 26 31 40 46 47 42 57 50 55 59 59 65 71 71 71 67 66 68 67 68 64 65 65 64 65 61 68 73
12 13 13 25 32 37 39 38 31 38 46 9 10 13 19 25 14 25 46 55 56 50 54 57 57 56 62 67 70 75 76 73 74 70 72 72 73 72 69 73 69 63 67 73
31 4 12 19 30 29 29 36 18 30 7 5 5 12 18 19 8 23 46 51 54 49 55 59 57 56 58 61 64 68 74 80 83 82 77 77 75 74 74 70 74 69 64 69
17 8 39 11 4 5 14 3 8 7 5 13 18 17 22 20 19 39 48 54 57 55 61 62 58 59 63 62 62 68 76 80 85 91 91 84 84 82 76 71 67 70 64 64
12 16 21 21 10 9 10 11 13 11 8 13 17 14 37 26 30 42 51 56 59 58 67 72 68 66 67 69 69 75 79 82 86 91 96 98 93 91 90 80 71 62 68 62
4 8 13 6 5 8 8 7 15 19 12 16 12 5 18 35 30 46 55 60 65 66 71 78 81 80 82 83 84 86 90 96 99 98 100 103 104 100 97 88 80 66 64 66
22 17 13 11 9 14 10 10 23 25 32 35 13 38 53 44 50 60 65 67 67 68 79 85 86 88 92 95 98 100 101 101 104 110 114 112 111 111 107 100 90 78 68 65
6 3 15 13 7 10 10 30 41 36 39 42 48 53 57 61 62 69 71 74 73 83 90 93 92 96 104 111 110 111 115 121 124 120 119 120 120 116 110 104 93 86 80 71
18 11 6 14 23 63 63 55 65 50 61 48 45 53 55 57 66 71 74 79 86 90 94 98 103 101 108 121 119 124 132 137 136 134 129 121 121 121 112 106 100 91 84 83
25 25 31 58 71 67 65 63 64 57 47 44 42 47 52 62 70 73 82 84 84 91 104 115 117 112 108 118 119 124 132 134 131 127 126 122 117 116 109 105 102 98 88 86
25 30 45 61 68 76 67 58 48 49 40 35 39 50 50 63 71 78 84 91 92 93 96 114 121 121 114 111 110 112 112 113 110 110 107 109 109 104 99 97 88 91 88 82
29 46 41 56 68 49 35 34 37 39 42 40 40 48 56 66 71 80 91 98 107 106 100 106 107 111 102 99 94 96 100 97 90 88 90 90 91 102 95 85 76 82 75 75
56 68 72 71 56 41 35 30 32 33 35 45 45 50 55 66 78 87 96 95 92 91 93 101 101 100 100 97 91 90 91 92 88 82 82 82 79 75 78 82 56 66 71 75
61 65 50 46 33 27 24 31 35 37 37 43 48 52 61 72 83 87 90 86 81 87 93 92 91 92 88 84 84 85 86 88 88 85 82 79 74 69 67 68 67 62 62 55
59 48 40 36 31 32 33 34 38 43 46 47 51 60 69 77 81 84 79 76 81 86 86 80 80 83 75 73 75 76 79 81 80 80 79 76 73 72 67 71 74 60 61 50
31 28 25 22 24 27 31 35 41 45 48 56 61 66 69 72 74 73 71 74 80 87 83 80 79 83 78 74 77 79 77 74 71 71 73 73 69 65 66 59 52 57 59 52
19 19 22 24 25 29 32 35 39 48 57 61 64 68 70 70 68 66 69 73 76 78 78 74 80 75 69 75 69 67 66 68 66 67 66 62 58 54 54 49 49 53 52 46
22 23 24 26 27 31 33 37 44 51 58 61 63 65 64 60 58 63 67 72 76 83 78 74 70 66 64 60 59 59 61 62 60 59 57 54 46 40 37 36 46 46 43 36
20 20 23 25 28 35 41 46 50 55 58 56 59 59 54 47 48 54 59 63 71 82 83 76 70 63 65 59 52 50 50 50 48 45 41 38 30 26 28 30 31 29 26 22
17 21 25 29 32 38 45 45 50 55 51 51 51 49 44 37 41 45 48 54 62 67 70 72 69 70 64 57 50 47 45 44 41 36 33 27 19 14 11 11 11 12 15 19
20 25 29 34 37 38 40 44 47 51 48 42 41 37 34 32 33 36 43 53 56 62 68 69 73 72 64 56 50 46 44 42 40 39 36 32 26 21 16 10 4 1 5 10
23 27 30 34 38 41 37 39 41 43 41 35 28 25 26 24 23 26 35 46 51 55 61 65 68 65 63 60 57 53 48 45 43 41 40 37 33 30 28 24 20 17 14 11
24 28 32 33 36 38 36 33 32 32 29 23 21 18 17 17 20 29 36 40 44 48 50 54 58 59 61 64 66 66 62 58 55 51 45 41 38 35 34 33 31 29 28 28
23 25 28 28 30 30 30 26 24 21 19 16 14 12 11 9 10 22 27 31 34 39 43 47 49 51 55 59 62 65 67 69 69 65 59 53 48 44 41 38 38 36 35 38
19 20 22 23 22 21 22 21 18 13 10 8 5 4 6 10 16 21 23 26 30 32 35 39 42 45 49 52 54 57 59 59 59 60 62 63 62 59 55 50 47 44 43 42
12 13 16 17 19 19 17 14 13 10 8 3 4 5 6 9 12 15 18 22 25 28 31 35 38 41 43 45 46 47 48 48 48 50 50 51 51 52 51 50 48 45 42 40
10 11 11 11 12 12 10 10 9 7 6 8 6 7 8 10 12 14 17 19 22 25 28 30 32 34 36 37 38 38 38 38 38 38 38 39 38 39 38 36 35 33 31 29
Wind_Direction_500mb
258 265 278 243 285 281 272 266 257 277 281 282 199 278 305 320 321 343 345 347 352 337 344 343 345 345 343 342 343 343 343 342 341 337 339 343 343 345 337 310 296 287 282 268
259 249 235 271 272 263 268 274 267 258 258 128 221 262 292 316 304 338 338 339 338 333 337 338 338 337 334 335 336 337 338 338 336 334 334 336 336 338 337 333 310 291 282 277
266 275 317 270 245 260 263 263 270 260 263 189 265 238 260 306 234 315 327 325 328 324 326 327 329 330 330 330 330 329 329 331 333 333 330 332 330 329 326 325 326 309 287 279
276 33 265 275 44 208 244 122 152 124 214 216 234 255 286 281 273 318 320 319 320 319 318 319 317 319 319 320 324 327 327 325 326 329 330 326 325 323 320 316 313 317 308 286
242 230 282 282 207 189 184 242 190 184 232 265 280 282 277 230 268 311 318 316 314 312 312 312 310 313 312 312 314 316 315 316 318 320 321 322 323 320 317 312 303 306 312 304
79 216 225 237 169 173 110 274 214 201 231 258 272 235 264 277 281 314 313 312 310 307 308 310 310 311 310 308 307 308 309 309 310 311 312 312 313 314 313 309 303 301 300 304
233 244 286 227 223 143 97 271 205 231 265 251 213 237 274 282 286 308 308 309 310 307 308 309 308 308 305 305 305 306 304 301 301 303 305 304 304 304 307 308 304 298 292 294
67 10 275 187 118 157 222 296 292 286 281 276 283 273 274 281 286 301 304 307 309 309 308 307 306 307 306 304 306 303 300 298 298 296 296 296 296 296 298 299 298 295 290 283
196 210 230 193 268 290 288 281 285 283 301 299 286 277 287 280 292 300 305 308 309 309 308 306 305 306 303 302 302 300 298 297 296 295 293 290 290 289 291 293 292 288 284 279
262 253 259 274 278 279 284 284 286 292 297 290 277 275 281 292 299 305 307 308 310 308 307 305 306 305 300 299 298 298 298 298 297 295 293 290 287 285 286 285 284 283 281 279
257 260 267 267 265 272 281 287 285 289 287 282 283 289 296 298 304 307 308 310 309 307 306 305 306 304 304 303 303 301 299 297 296 296 296 294 290 285 282 278 275 274 275 274
256 261 256 267 273 280 282 274 275 279 283 291 298 302 304 303 308 310 310 312 311 312 312 313 313 312 310 309 306 302 299 296 294 294 294 293 290 289 277 271 265 261 257 257
252 262 264 268 278 277 277 275 276 284 290 296 301 302 305 309 312 312 311 315 321 321 320 320 317 312 312 308 304 297 292 293 291 289 288 288 286 283 284 279 270 256 251 255
264 262 262 261 264 267 275 282 289 295 297 301 306 309 311 312 310 315 323 323 325 326 325 320 314 310 315 310 302 298 295 293 290 288 285 283 282 279 278 279 282 269 265 261
255 253 253 261 265 272 278 284 290 299 305 307 310 316 317 316 321 321 324 330 331 325 324 324 322 322 325 321 315 311 306 300 296 292 291 288 281 279 272 271 265 271 272 275
241 248 254 258 266 277 288 294 297 302 308 311 316 317 318 321 321 325 333 336 330 329 333 331 326 330 328 327 322 317 312 309 304 296 290 287 283 274 277 279 275 264 272 280
246 250 252 256 270 284 293 299 302 306 308 309 314 316 320 323 325 332 336 338 338 339 340 337 329 328 329 326 322 319 317 316 314 309 303 300 293 284 278 275 272 272 276 281
250 259 269 275 286 290 294 297 301 304 306 312 315 316 321 325 329 333 339 342 347 349 351 342 337 340 334 336 335 329 326 324 323 317 314 309 300 292 287 280 273 279 284 281
255 264 273 280 287 294 298 302 304 303 306 312 313 316 320 326 331 335 341 351 357 354 354 351 351 348 351 348 344 341 342 340 339 339 334 330 323 312 298 290 286 286 285 278
264 276 285 290 293 296 298 301 300 300 308 309 310 313 318 326 333 339 348 3 5 358 360 1 0 3 358 359 358 357 359 0 360 2 2 2 357 342 328 308 300 295 281 263
280 287 293 297 299 301 302 303 304 305 309 307 307 310 315 327 336 346 359 6 7 8 9 10 13 10 8 8 13 16 15 18 22 22 24 28 29 32 30 25 8 233 206 204
297 302 306 307 306 309 311 307 303 301 302 303 301 305 312 328 340 7 19 10 8 12 14 16 20 20 21 24 26 28 30 32 33 36 39 42 47 50 51 50 55 65 78 100
308 310 311 313 311 312 313 312 306 302 302 301 300 303 314 335 351 6 17 18 14 18 18 22 25 27 30 36 38 39 40 40 41 42 44 50 56 60 63 65 70 77 85 97
312 313 315 314 313 311 316 322 316 310 304 299 295 305 321 351 15 19 16 12 13 19 22 25 28 31 36 40 43 46 48 50 50 50 51 54 58 63 70 74 77 80 89 105
327 330 326 320 319 321 321 327 328 321 317 306 305 326 348 4 17 22 18 14 13 17 23 27 29 32 37 41 44 48 51 53 54 54 56 57 59 62 66 71 77 85 94 101
353 346 343 339 333 330 329 333 337 336 350 23 47 48 39 36 29 23 17 12 10 14 19 23 28 31 34 37 40 44 48 52 54 56 59 62 65 67 69 72 75 79 83 87
20 19 19 14 2 356 349 347 349 11 31 50 57 51 44 35 25 17 13 11 12 15 17 20 23 25 28 31 35 38 41 45 49 53 58 61 63 65 67 70 74 79 83 88
Wind_Speed_850mb
26 32 13 5 16 25 26 31 21 34 34 40 4 7 13 27 26 31 40 46 47 42 57 50 55 59 59 65 71 71 71 67 66 68 67 68 64 65 65 64 65 61 68 73
12 13 13 25 32 37 39 38 31 38 46 9 10 13 19 25 14 25 46 55 56 50 54 57 57 56 62 67 70 75 76 73 74 70 72 72 73 72 69 73 69 63 67 73
31 4 12 19 30 29 29 36 18 30 7 5 5 12 18 19 8 23 46 51 54 49 55 59 57 56 58 61 64 68 74 80 83 82 77 77 75 74 74 70 74 69 64 69
17 8 39 11 4 5 14 3 8 7 5 13 18 17 22 20 19 39 48 54 57 55 61 62 58 59 63 62 62 68 76 80 85 91 91 84 84 82 76 71 67 70 64 64
12 16 21 21 10 9 10 11 13 11 8 13 17 14 37 26 30 42 51 56 59 58 67 72 68 66 67 69 69 75 79 82 86 91 96 98 93 91 90 80 71 62 68 62
4 8 13 6 5 8 8 7 15 19 12 16 12 5 18 35 30 46 55 60 65 66 71 78 81 80 82 83 84 86 90 96 99 98 100 103 104 100 97 88 80 66 64 66
22 17 13 11 9 14 10 10 23 25 32 35 13 38 53 44 50 60 65 67 67 68 79 85 86 88 92 95 98 100 101 101 104 110 114 112 111 111 107 100 90 78 68 65
6 3 15 13 7 10 10 30 41 36 39 42 48 53 57 61 62 69 71 74 73 83 90 93 92 96 104 111 110 111 115 121 124 120 119 120 120 116 110 104 93 86 80 71
18 11 6 14 23 63 63 55 65 50 61 48 45 53 55 57 66 71 74 79 86 90 94 98 103 101 108 121 119 124 132 137 136 134 129 121 121 121 112 106 100 91 84 83
25 25 31 58 71 67 65 63 64 57 47 44 42 47 52 62 70 73 82 84 84 91 104 115 117 112 108 118 119 124 132 134 131 127 126 122 117 116 109 105 102 98 88 86
25 30 45 61 68 76 67 58 48 49 40 35 39 50 50 63 71 78 84 91 92 93 96 114 121 121 114 111 110 112 112 113 110 110 107 109 109 104 99 97 88 91 88 82
29 46 41 56 68 49 35 34 37 39 42 40 40 48 56 66 71 80 91 98 107 106 100 106 107 111 102 99 94 96 100 97 90 88 90 90 91 102 95 85 76 82 75 75
56 68 72 71 56 41 35 30 32 33 35 45 45 50 55 66 78 87 96 95 92 91 93 101 101 100 100 97 91 90 91 92 88 82 82 82 79 75 78 82 56 66 71 75
61 65 50 46 33 27 24 31 35 37 37 43 48 52 61 72 83 87 90 86 81 87 93 92 91 92 88 84 84 85 86 88 88 85 82 79 74 69 67 68 67 62 62 55
59 48 40 36 31 32 33 34 38 43 46 47 51 60 69 77 81 84 79 76 81 86 86 80 80 83 75 73 75 76 79 81 80 80 79 76 73 72 67 71 74 60 61 50
31 28 25 22 24 27 31 35 41 45 48 56 61 66 69 72 74 73 71 74 80 87 83 80 79 83 78 74 77 79 77 74 71 71 73 73 69 65 66 59 52 57 59 52
19 19 22 24 25 29 32 35 39 48 57 61 64 68 70 70 68 66 69 73 76 78 78 74 80 75 69 75 69 67 66 68 66 67 66 62 58 54 54 49 49 53 52 46
22 23 24 26 27 31 33 37 44 51 58 61 63 65 64 60 58 63 67 72 76 83 78 74 70 66 64 60 59 59 61 62 60 59 57 54 46 40 37 36 46 46 43 36
20 20 23 25 28 35 41 46 50 55 58 56 59 59 54 47 48 54 59 63 71 82 83 76 70 63 65 59 52 50 50 50 48 45 41 38 30 26 28 30 31 29 26 22
17 21 25 29 32 38 45 45 50 55 51 51 51 49 44 37 41 45 48 54 62 67 70 72 69 70 64 57 50 47 45 44 41 36 33 27 19 14 11 11 11 12 15 19
20 25 29 34 37 38 40 44 47 51 48 42 41 37 34 32 33 36 43 53 56 62 68 69 73 72 64 56 50 46 44 42 40 39 36 32 26 21 16 10 4 1 5 10
23 27 30 34 38 41 37 39 41 43 41 35 28 25 26 24 23 26 35 46 51 55 61 65 68 65 63 60 57 53 48 45 43 41 40 37 33 30 28 24 20 17 14 11
24 28 32 33 36 38 36 33 32 32 29 23 21 18 17 17 20 29 36 40 44 48 50 54 58 59 61 64 66 66 62 58 55 51 45 41 38 35 34 33 31 29 28 28
23 25 28 28 30 30 30 26 24 21 19 16 14 12 11 9 10 22 27 31 34 39 43 47 49 51 55 59 62 65 67 69 69 65 59 53 48 44 41 38 38 36 35 38
19 20 22 23 22 21 22 21 18 13 10 8 5 4 6 10 16 21 23 26 30 32 35 39 42 45 49 52 54 57 59 59 59 60 62 63 62 59 55 50 47 44 43 42
12 13 16 17 19 19 17 14 13 10 8 3 4 5 6 9 12 15 18 22 25 28 31 35 38 41 43 45 46 47 48 48 48 50 50 51 51 52 51 50 48 45 42 40
10 11 11 11 12 12 10 10 9 7 6 8 6 7 8 10 12 14 17 19 22 25 28 30 32 34 36 37 38 38 38 38 38 38 38 39 38 39 38 36 35 33 31 29
Wind_Direction_850mb
258 265 278 243 285 281 272 266 257 277 281 282 199 278 305 320 321 343 345 347 352 337 344 343 345 345 343 342 343 343 343 342 341 337 339 343 343 345 337 310 296 287 282 268
259 249 235 271 272 263 268 274 267 258 258 128 221 262 292 316 304 338 338 339 338 333 337 338 338 337 334 335 336 337 338 338 336 334 334 336 336 338 337 333 310 291 282 277
266 275 317 270 245 260 263 263 270 260 263 189 265 238 260 306 234 315 327 325 328 324 326 327 329 330 330 330 330 329 329 331 333 333 330 332 330 329 326 325 326 309 287 279
276 33 265 275 44 208 244 122 152 124 214 216 234 255 286 281 273 318 320 319 320 319 318 319 317 319 319 320 324 327 327 325 326 329 330 326 325 323 320 316 313 317 308 286
242 230 282 282 207 189 184 242 190 184 232 265 280 282 277 230 268 311 318 316 314 312 312 312 310 313 312 312 314 316 315 316 318 320 321 322 323 320 317 312 303 306 312 304
79 216 225 237 169 173 110 274 214 201 231 258 272 235 264 277 281 314 313 312 310 307 308 310 310 311 310 308 307 308 309 309 310 311 312 312 313 314 313 309 303 301 300 304
233 244 286 227 223 143 97 271 205 231 265 251 213 237 274 282 286 308 308 309 310 307 308 309 308 308 305 305 305 306 304 301 301 303 305 304 304 304 307 308 304 298 292 294
67 10 275 187 118 157 222 296 292 286 281 276 283 273 274 281 286 301 304 307 309 309 308 307 306 307 306 304 306 303 300 298 298 296 296 296 296 296 298 299 298 295 290 283
196 210 230 193 268 290 288 281 285 283 301 299 286 277 287 280 292 300 305 308 309 309 308 306 305 306 303 302 302 300 298 297 296 295 293 290 290 289 291 293 292 288 284 279
262 253 259 274 278 279 284 284 286 292 297 290 277 275 281 292 299 305 307 308 310 308 307 305 306 305 300 299 298 298 298 298 297 295 293 290 287 285 286 285 284 283 281 279
257 260 267 267 265 272 281 287 285 289 287 282 283 289 296 298 304 307 308 310 309 307 306 305 306 304 304 303 303 301 299 297 296 296 296 294 290 285 282 278 275 274 275 274
256 261 256 267 273 280 282 274 275 279 283 291 298 302 304 303 308 310 310 312 311 312 312 313 313 312 310 309 306 302 299 296 294 294 294 293 290 289 277 271 265 261 257 257
252 262 264 268 278 277 277 275 276 284 290 296 301 302 305 309 312 312 311 315 321 321 320 320 317 312 312 308 304 297 292 293 291 289 288 288 286 283 284 279 270 256 251 255
264 262 262 261 264 267 275 282 289 295 297 301 306 309 311 312 310 315 323 323 325 326 325 320 314 310 315 310 302 298 295 293 290 288 285 283 282 279 278 279 282 269 265 261
255 253 253 261 265 272 278 284 290 299 305 307 310 316 317 316 321 321 324 330 331 325 324 324 322 322 325 321 315 311 306 300 296 292 291 288 281 279 272 271 265 271 272 275
241 248 254 258 266 277 288 294 297 302 308 311 316 317 318 321 321 325 333 336 330 329 333 331 326 330 328 327 322 317 312 309 304 296 290 287 283 274 277 279 275 264 272 280
246 250 252 256 270 284 293 299 302 306 308 309 314 316 320 323 325 332 336 338 338 339 340 337 329 328 329 326 322 319 317 316 314 309 303 300 293 284 278 275 272 272 276 281
250 259 269 275 286 290 294 297 301 304 306 312 315 316 321 325 329 333 339 342 347 349 351 342 337 340 334 336 335 329 326 324 323 317 314 309 300 292 287 280 273 279 284 281
255 264 273 280 287 294 298 302 304 303 306 312 313 316 320 326 331 335 341 351 357 354 354 351 351 348 351 348 344 341 342 340 339 339 334 330 323 312 298 290 286 286 285 278
264 276 285 290 293 296 298 301 300 300 308 309 310 313 318 326 333 339 348 3 5 358 360 1 0 3 358 359 358 357 359 0 360 2 2 2 357 342 328 308 300 295 281 263
280 287 293 297 299 301 302 303 304 305 309 307 307 310 315 327 336 346 359 6 7 8 9 10 13 10 8 8 13 16 15 18 22 22 24 28 29 32 30 25 8 233 206 204
297 302 306 307 306 309 311 307 303 301 302 303 301 305 312 328 340 7 19 10 8 12 14 16 20 20 21 24 26 28 30 32 33 36 39 42 47 50 51 50 55 65 78 100
308 310 311 313 311 312 313 312 306 302 302 301 300 303 314 335 351 6 17 18 14 18 18 22 25 27 30 36 38 39 40 40 41 42 44 50 56 60 63 65 70 77 85 97
312 313 315 314 313 311 316 322 316 310 304 299 295 305 321 351 15 19 16 12 13 19 22 25 28 31 36 40 43 46 48 50 50 50 51 54 58 63 70 74 77 80 89 105
327 330 326 320 319 321 321 327 328 321 317 306 305 326 348 4 17 22 18 14 13 17 23 27 29 32 37 41 44 48 51 53 54 54 56 57 59 62 66 71 77 85 94 101
353 346 343 339 333 330 329 333 337 336 350 23 47 48 39 36 29 23 17 12 10 14 19 23 28 31 34 37 40 44 48 52 54 56 59 62 65 67 69 72 75 79 83 87
20 19 19 14 2 356 349 347 349 11 31 50 57 51 44 35 25 17 13 11 12 15 17 20 23 25 28 31 35 38 41 45 49 53 58 61 63 65 67 70 74 79 83 88